Regional Weather Roundup
Issued by NWS

Home | Current Version | Previous Version | Text Only | Print | Product List | Glossary Off
Versions: 1 2 3 4 5 6 7 8 9 10 11 12 13 14 15 16 17 18 19 20 21 22 23 24 25 26 27 28 29 30 31 32 33 34 35 36 37 38 39 40 41 42 43 44 45 46 47 48 49 50

000
ASUS43 KLOT 010906
RWRIL

ILLINOIS REGIONAL WEATHER ROUNDUP
NATIONAL WEATHER SERVICE CHICAGO/ROMEOVILLE IL
300 AM CST SUN FEB 01 2015

NOTE: "FAIR" INDICATES FEW OR NO CLOUDS BELOW 12,000 FEET WITH NO
SIGNIFICANT WEATHER AND/OR OBSTRUCTIONS TO VISIBILITY.

* THESE STATIONS ARE NOT UNDER NWS QUALITY CONTROL. THEY ALSO MAY NOT
  REPORT WEATHER SUCH AS PRECIPITATION OR FOG.

ILZ001-002-007-009-015-016-024-011000-
NORTHWEST ILLINOIS

CITY           SKY/WX    TMP DP  RH WIND       PRES   REMARKS
MOLINE         LGT SNOW  32  31  96 E9        29.93F VSB 1   WCI  24
STERLING*        N/A    N/A N/A N/A MISG        N/A
SAVANNA*       LGT SNOW  32  31  96 E13       29.99F VSB 3/4 WCI  22
$$

ILZ003-004-008-010-011-017-018-011000-
NORTH CENTRAL ILLINOIS

CITY           SKY/WX    TMP DP  RH WIND       PRES   REMARKS
ROCKFORD       LGT SNOW  30  27  88 E13       30.06F VSB 1   WCI  20
FREEPORT*      LGT SNOW  29  28  95 E13       30.05F WCI  18
ROCHELLE*      LGT SNOW  31  30  99 E10       30.03F VSB 1   WCI  22
DE KALB*       LGT SNOW  29  28  96 E12       30.04F WCI  19
PERU*          LGT SNOW  33  33 100 E7        30.02F VSB 1   WCI  27
$$

ILZ005-006-012>014-019>023-011000-
NORTHEAST ILLINOIS

CITY           SKY/WX    TMP DP  RH WIND       PRES   REMARKS
CHICAGO-OHARE  LGT SNOW  31  29  92 E9        30.07F VSB 3/4 WCI  23
CHICAGO-MIDWAY LGT SNOW  33  31  92 E10       30.08F VSB 1   WCI  25
AURORA         LGT SNOW  32  29  88 E10       30.05F VSB 1   WCI  24
LANSING*       LGT SNOW  32  32 100 CALM      30.07F
JOLIET*        LGT SNOW  32  32  99 E3        30.06F
WAUKEGAN       LGT SNOW  29  28  96 NE15G22   30.09F VSB 1   WCI  18
DUPAGE AIRPORT LGT SNOW  31  29  92 E10       30.05F FOG     WCI  22
KANKAKEE*      LGT SNOW  32  32  99 E6        30.07S WCI  27
WHEELING       LGT SNOW  31  29  92 E8        30.10F VSB 1   WCI  23
MORRIS*        LGT SNOW  32  32 100 E3        30.04F
ROMEOVILLE*    LGT SNOW  32  32 100 E6        30.05F WCI  26
NORTHERLY ISL    N/A     31  30  96 E12         N/A  WCI  22
$$

LMZ740>746-011000-
SOUTHERN LAKE MICHIGAN

STATION/POSITION SKY/WX   TEMP    WIND        PRES    VSBY  WAVE
                          AIR SEA DIR/SP/G                  HT/PER
                          (F)     (DEG/KT/KT) (MB)    (MI)  (FT/S)
WAUKEGAN HARBOR            30      60/ 16/ 20   N/A
HARRISON CRIB              31      80/ 15/ 17   N/A
BURNHAM HARBOR             31      80/  9/ 11   N/A
CALUMET HARBOR             31      70/ 11/ 13   N/A
MICHIGAN CITY              30      60/  6/  8   N/A
$$

ILZ025>027-034>036-040-047-049-050-058-095>099-011000-
WEST-CENTRAL ILLINOIS

CITY           SKY/WX    TMP DP  RH WIND       PRES   REMARKS
QUINCY         LGT SNOW  33  31  92 SE10      29.88F VSB 3/4 WCI  25
GALESBURG*     LGT SNOW  32  32 100 SE9       29.93F WCI  24
MACOMB*        LGT SNOW  32  32 100 SE12      29.95F WCI  23
JACKSONVILLE*  LGT SNOW  34  33  94 SE7       29.94F WCI  28
PITTSFIELD*    LGT SNOW  33  32  95 E8        29.91F WCI  27
$$

ILZ028>032-037-038-041>044-048-051>054-059>061-011000-
CENTRAL ILLINOIS

CITY           SKY/WX    TMP DP  RH WIND       PRES   REMARKS
PONTIAC        LGT SNOW  33  33 100 SE6       30.05F VSB 1   WCI  28
BLOOMINGTON    LGT SNOW  33  33 100 SE10      30.02F VSB 3/4 WCI  25
DECATUR        CLOUDY    36  29  75 E3        29.99F
PEORIA         LGT SNOW  34  31  88 E8        29.98F FOG     WCI  27
LACON*         LGT SNOW  32  31  96 SE7       30.00F WCI  26
LINCOLN*       LGT SNOW  34  33  96 SE10      30.01F WCI  26
SPRINGFIELD    LGT SNOW  34  32  92 SE9       29.98F FOG     WCI  27
TAYLORVILLE    LGT SNOW  32  30  93 CALM      29.99S
$$

ILZ033-039-045-046-055>057-062-063-011000-
EAST-CENTRAL ILLINOIS

CITY           SKY/WX    TMP DP  RH WIND       PRES   REMARKS
CHAMPAIGN      CLOUDY    33  31  92 NE12      30.00F WCI  24
DANVILLE*      LGT SNOW  32  31  98 SE6       30.06R WCI  26
RANTOUL*       LGT SNOW  34  33  97 SE9       30.04F VSB 3/4 WCI  26
MATTOON        CLOUDY    35  26  69 SE9       29.99F WCI  28
PARIS*         CLOUDY    34  31  90 E8        30.03F WCI  27
$$

ILZ079-100>102-011000-
SOUTHWEST ILLINOIS

CITY           SKY/WX    TMP DP  RH WIND       PRES   REMARKS
ALTON          LGT RAIN  35  29  79 E8        29.93F WCI  29
BELLEVILLE     LGT RAIN  38  29  69 SE9       29.91F WCI  31
CAHOKIA*       LGT RAIN  38  29  70 CALM      29.92F
SPARTA*        CLOUDY    38  26  61 E8        29.93F WCI  32
$$

ILZ064>066-069>071-074>076-080>082-084>086-088>090-092>094-011000-
SOUTH-CENTRAL ILLINOIS

CITY           SKY/WX    TMP DP  RH WIND       PRES   REMARKS
CARBONDALE     CLOUDY    43  20  39 S9        29.94F
CAIRO*         CLOUDY    47  26  44 SE12      29.95F
EFFINGHAM*     CLOUDY    35  26  67 E8        30.00F WCI  29
MARION         CLOUDY    43  21  42 SE6       29.96F
MT. VERNON     CLOUDY    37  25  60 E6        29.97F WCI  33
CENTRALIA*     CLOUDY    37  26  62 SE8       29.95F WCI  31
SALEM*         CLOUDY    40  26  56 SE7       29.96F
METROPOLIS*    CLOUDY    44  22  41 SE8       29.96F
$$

ILZ067-068-072-073-078-083-087-091-011000-
SOUTHEAST ILLINOIS

CITY           SKY/WX    TMP DP  RH WIND       PRES   REMARKS
LAWRENCEVILLE  CLOUDY    36  26  67 E9        30.02F WCI  29
FLORA*         CLOUDY    35  28  75 E7        29.99F WCI  29
FAIRFIELD*     CLOUDY    38  26  63 E6        29.97F WCI  33
HARRISBURG*    CLOUDY    38  27  65 E6        29.99F WCI  33
ROBINSON*      CLOUDY    34  29  80 E7        30.04F WCI  28
CARMI*         CLOUDY    40  29  65 E7        30.00F
$$

ABBREVIATIONS USED IN REMARKS
   TC - TEMPERATURE IN CELSIUS
  WCI - WIND CHILL INDEX
   HX - HEAT INDEX
  VSB - VISIBILITY
$$




USA.gov is the U.S. government's official web portal to all federal, state and local government web resources and services.